CREW DRAGON 11

Last updated on Thu Oct 30 2025 00:02:11 GMT+0000 (Coordinated Universal Time)

1 65077U 25166A 25302.16707945 .00014299 00000+0 26191-3 0 9992 2 65077 51.6346 3.1486 0004793 352.0349 8.0563 15.49570566 2140
UTC large
Height (km)
Speed (km/s)
/
Latitude / Longitude
Inclination (degrees)
Orbital Period (minutes)
Azimuth
Elevation
Range (km)
Doppler Factor

Next 0 passes for location: London (51.5072 / 0.1276)

Sorry there are no passes over London.